Flag for Germany Weather past 2 weeks in Oberursel (Taunus), Hesse, Germany

Now
49 °F

Sprinkles. Low clouds.


Feels Like: 46 °F
Forecast: 35 / 44 °F
Wind: 8 mph from Southwest

Location: Frankfurt / M-Flughafen

Current Time: Mar 2, 2015 at 6:08:39 PM

Latest Report: Mar 2, 2015 at 5:00 PM


Visibility: 13 mi

Pressure: 29.77 "Hg

Humidity: 45%

Dew point: 29 °F

Location of Oberursel (Taunus)Location

Historic Weather in Oberursel (Taunus) — Graph

°F

Oberursel (Taunus) temperature yesterday

Maximum temperature yesterday: 50 °F (at 5:00 PM)
Minimum temperature yesterday: 36 °F (at 12:00 AM)
Average temperature yesterday: 43 °F

Past Weeks' High & Low Weather Summary

 TemperatureHumidityPressure
High52 °F (Feb 20, 5:00 PM)100% (Feb 23, 12:00 PM)30.77 "Hg (Feb 23, 12:00 PM)
Low29 °F (Feb 28, 7:00 AM)38% (Mar 2, 3:00 PM)29.47 "Hg (Feb 21, 6:00 AM)
Average39 °F81%30.02 "Hg
* Reported Feb 15 5:00 PM — Mar 2 5:00 PM, Oberursel (Taunus), Weather by CustomWeather, © 2015

Note: Actual official high and low records may vary slightly from our data, if they occured in-between our weather recording intervals... More about our weather records

Advertising

Oberursel (Taunus) weather history for previous 24 hours

 ConditionsComfort  
Time TempWeatherWind HumidityBarometerVisibility
5:00 PM
Mon, Mar 2
49 °FSprinkles. Low clouds.8 mph45%29.77 "Hg12 mi
4:00 PM49 °FPartly sunny.7 mph41%29.77 "Hg31 mi
3:00 PM50 °FPartly sunny.10 mph38%29.76 "Hg31 mi
2:00 PM49 °FPartly sunny.8 mph47%29.76 "Hg31 mi
1:00 PM47 °FScattered clouds.10 mph51%29.76 "Hg31 mi
12:00 PM47 °FPassing clouds.12 mph59%29.76 "Hg31 mi
11:00 AM43 °FSprinkles. Partly sunny.12 mph67%29.75 "Hg31 mi
10:00 AM45 °FScattered clouds.9 mph65%29.71 "Hg31 mi
9:00 AM43 °FScattered clouds.8 mph73%29.68 "Hg31 mi
8:00 AM44 °FOvercast.6 mph63%29.65 "Hg31 mi
7:00 AM44 °FPassing clouds.5 mph73%29.62 "Hg31 mi
6:00 AM46 °FPassing clouds.6 mph66%29.61 "Hg31 mi
5:00 AM47 °FPassing clouds.9 mph72%29.59 "Hg31 mi
3:00 AM47 °FPassing clouds.7 mph86%29.55 "Hg25 mi
2:00 AM47 °FOvercast.7 mph89%29.56 "Hg16 mi
1:00 AM48 °FOvercast.7 mph80%29.59 "Hg25 mi
12:00 AM48 °FPassing clouds.8 mph80%29.62 "Hg25 mi
11:00 PM
Sun, Mar 1
49 °FOvercast.6 mph81%29.65 "Hg25 mi
9:00 PM48 °FOvercast.6 mph80%29.70 "Hg25 mi
8:00 PM47 °FOvercast.5 mph86%29.71 "Hg25 mi
7:00 PM49 °FPassing clouds.8 mph77%29.71 "Hg25 mi
6:00 PM49 °FScattered clouds.8 mph78%29.70 "Hg28 mi
Weather by CustomWeather, © 2015

See weather overviewHow to use our weather pages